DW1105 Weather Reports


Display with metric or nautical units.
time (UTC)temp
F
wind
direction
speed
MPH
gust
MPH
rain 1hr
in
rain 24hr
in
rain mn
in
humidity
%
barometer
mb
20260905063811 71 25 0.0 5.0 0.00 0.20 0.00 71 1010.4
20260905063328 71 317 2.0 8.0 0.00 0.20 0.00 72 1010.4
20260905062824 71 317 2.0 8.0 0.00 0.20 0.00 71 1010.5
20260905062326 71 297 1.0 2.0 0.00 0.20 0.00 72 1010.5
20260905061822 71 343 1.0 3.0 0.00 0.20 0.00 72 1010.5
20260905061320 71 327 0.0 3.0 0.00 0.20 0.00 71 1010.5
20260905060816 71 302 0.0 3.0 0.00 0.20 0.00 72 1010.5
20260905060313 71 314 1.0 3.0 0.00 0.20 0.00 71 1010.6
20260905055829 71 300 0.0 3.0 0.00 0.26 0.00 71 1010.6
20260905055326 71 300 1.0 3.0 0.00 0.26 0.00 71 1010.7
20260905054827 71 324 1.0 3.0 0.00 0.26 0.00 72 1010.8
20260905054323 71 328 2.0 3.0 0.00 0.26 0.00 72 1010.8
20260905053820 71 271 0.0 4.0 0.00 0.26 0.00 71 1010.8
20260905053317 71 269 1.0 4.0 0.00 0.26 0.00 71 1010.8
20260905052813 71 284 0.0 2.0 0.00 0.26 0.00 71 1010.8
20260905052311 71 309 0.0 3.0 0.00 0.26 0.00 72 1010.9
20260905051827 71 309 0.0 3.0 0.00 0.26 0.00 72 1011.0
20260905051328 71 292 0.0 3.0 0.00 0.26 0.00 73 1011.2
20260905050825 71 313 0.0 3.0 0.00 0.26 0.00 73 1011.2
20260905050322 71 268 1.0 3.0 0.00 0.26 0.00 73 1011.3
20260905045819 71 232 0.0 2.0 0.00 0.26 0.00 73 1011.3
20260905045316 71 206 1.0 2.0 0.00 0.26 0.00 72 1011.3
20260905044812 71 284 1.0 3.0 0.00 0.26 0.00 72 1011.3
20260905044330 72 273 1.0 3.0 0.00 0.26 0.00 72 1011.2
20260905043810 72 291 0.0 4.0 0.00 0.26 0.00 72 1011.2
20260905043327 72 285 0.0 5.0 0.00 0.26 0.00 72 1011.2
20260905042823 72 331 2.0 5.0 0.00 0.26 0.00 72 1011.3
20260905042321 72 346 1.0 4.0 0.00 0.26 0.00 72 1011.3
20260905041818 72 320 1.0 5.0 0.00 0.26 0.00 72 1011.3
20260905041315 72 324 2.0 5.0 0.00 0.26 0.00 71 1011.4
20260905040811 72 313 2.0 4.0 0.00 0.26 0.00 71 1011.3
20260905040312 72 327 2.0 3.0 0.00 0.26 0.00 71 1011.4
20260905035828 72 313 1.0 5.0 0.00 0.26 0.26 71 1011.4
20260905035325 72 337 2.0 5.0 0.00 0.26 0.26 71 1011.5
20260905034822 73 319 1.0 9.0 0.00 0.26 0.26 71 1011.4
20260905034320 73 339 2.0 9.0 0.00 0.26 0.26 70 1011.4
20260905033816 73 331 3.0 5.0 0.00 0.26 0.26 70 1011.4
20260905033313 73 265 3.0 5.0 0.00 0.26 0.26 70 1011.3
20260905032813 73 339 2.0 5.0 0.00 0.26 0.26 70 1011.4
20260905032311 73 279 3.0 5.0 0.00 0.26 0.26 70 1011.3
20260905031828 73 327 2.0 5.0 0.00 0.26 0.26 70 1011.3
20260905031324 73 323 2.0 6.0 0.00 0.26 0.26 69 1011.3
20260905030821 73 321 3.0 6.0 0.00 0.26 0.26 69 1011.3
20260905030317 73 274 2.0 5.0 0.00 0.26 0.26 70 1011.3
20260905025813 73 338 2.0 6.0 0.00 0.26 0.26 69 1011.3
20260905025314 73 290 0.0 6.0 0.00 0.26 0.26 69 1011.4
20260905024811 73 334 2.0 5.0 0.00 0.26 0.26 69 1011.3
20260905024327 73 315 4.0 5.0 0.00 0.26 0.26 69 1011.3
20260905023824 73 298 2.0 5.0 0.00 0.26 0.26 69 1011.2
20260905023321 73 343 1.0 5.0 0.00 0.26 0.26 69 1011.2
20260905022818 73 317 2.0 5.0 0.00 0.26 0.26 69 1011.1
20260905022316 73 333 2.0 6.0 0.00 0.26 0.26 70 1011.3
20260905021816 73 300 1.0 6.0 0.00 0.26 0.26 71 1011.4
20260905021312 73 327 2.0 5.0 0.00 0.26 0.26 71 1011.4
20260905020829 73 286 2.0 5.0 0.00 0.26 0.26 72 1011.3
20260905020326 72 302 1.0 4.0 0.00 0.26 0.26 72 1011.3
20260905015823 72 250 0.0 2.0 0.00 0.26 0.26 73 1011.3
20260905015320 73 258 1.0 3.0 0.00 0.26 0.26 73 1011.5
20260905014817 73 276 1.0 3.0 0.00 0.26 0.26 72 1011.4
20260905014318 73 290 0.0 2.0 0.00 0.26 0.26 72 1011.5
20260905013814 73 259 0.0 3.0 0.00 0.26 0.26 72 1011.5
20260905013311 73 338 1.0 4.0 0.00 0.26 0.26 73 1011.4
20260905012828 73 250 0.0 4.0 0.00 0.26 0.26 73 1011.4
20260905012325 73 280 1.0 3.0 0.00 0.26 0.26 72 1011.3
20260905011822 73 262 0.0 2.0 0.00 0.26 0.26 72 1011.3
20260905011319 73 313 1.0 4.0 0.00 0.26 0.26 72 1011.2
20260905010820 73 324 1.0 4.0 0.00 0.26 0.26 72 1011.3
20260905010317 73 289 0.0 4.0 0.00 0.26 0.26 72 1011.3
20260905005814 73 287 1.0 4.0 0.00 0.26 0.26 72 1011.2
20260905005311 73 287 1.0 4.0 0.00 0.26 0.26 72 1011.2
20260905004828 73 307 1.0 4.0 0.00 0.26 0.26 74 1011.2
20260905004326 73 323 0.0 0.0 0.00 0.26 0.26 74 1011.2
20260905003823 73 360 0.0 0.0 0.00 0.26 0.26 74 1011.2
20260905003324 73 328 0.0 0.0 0.00 0.26 0.26 74 1011.2
20260905002821 73 328 0.0 0.0 0.00 0.26 0.26 75 1011.3
20260905002319 73 328 0.0 0.0 0.00 0.26 0.26 75 1011.3
20260905001815 73 328 0.0 0.0 0.00 0.26 0.26 75 1011.3
20260905001314 74 328 0.0 1.0 0.00 0.26 0.26 75 1011.2
20260905000810 75 328 0.0 2.0 0.00 0.26 0.26 72 1011.0
20260905000311 75 327 0.0 2.0 0.00 0.26 0.26 69 1010.8
20260904145829 79 313 4.0 10.0 0.01 0.26 0.26 71 1012.3
20260904145326 78 348 4.0 15.0 0.01 0.26 0.26 72 1012.3
20260904144823 78 348 5.0 12.0 0.00 0.25 0.25 73 1012.4
20260904144320 78 312 4.0 11.0 0.00 0.25 0.25 73 1012.3
20260904143821 78 23 6.0 11.0 0.00 0.25 0.25 73 1012.2
20260904143318 79 277 6.0 10.0 0.00 0.25 0.25 73 1012.2
20260904142815 79 329 2.0 8.0 0.00 0.25 0.25 74 1012.2
20260904142312 78 223 3.0 9.0 0.00 0.25 0.25 74 1012.2
20260904141829 78 360 5.0 9.0 0.00 0.25 0.25 74 1012.2
20260904141326 78 38 2.0 11.0 0.00 0.25 0.25 74 1012.1
20260904140823 78 333 5.0 11.0 0.00 0.25 0.25 74 1012.1
20260904140324 78 291 1.0 10.0 0.00 0.25 0.25 78 1012.0
20260904135820 78 281 5.0 10.0 0.00 0.25 0.25 76 1012.0
20260904135318 78 336 2.0 8.0 0.00 0.25 0.25 76 1011.9
20260904134815 77 191 2.0 8.0 0.00 0.25 0.25 78 1012.0
20260904134330 77 321 4.0 8.0 0.00 0.25 0.25 78 1012.0
20260904133827 77 340 4.0 8.0 0.00 0.25 0.25 78 1011.9
20260904133324 77 319 3.0 8.0 0.00 0.25 0.25 79 1012.1
20260904132825 77 314 3.0 8.0 0.00 0.25 0.25 78 1012.2
20260904132322 77 331 1.0 9.0 0.00 0.25 0.25 80 1012.1
20260904131819 77 321 3.0 9.0 0.00 0.25 0.25 79 1012.1
20260904131315 77 338 2.0 6.0 0.00 0.25 0.25 80 1012.0
20260904130812 76 5 1.0 8.0 0.00 0.25 0.25 81 1012.0
20260904130329 76 344 2.0 8.0 0.00 0.25 0.25 81 1011.9
20260904125825 76 355 4.0 5.0 0.00 0.25 0.25 82 1012.1
20260904125326 76 347 2.0 8.0 0.00 0.25 0.25 82 1012.1
20260904124823 75 328 3.0 9.0 0.00 0.25 0.25 83 1012.2
20260904124321 75 326 4.0 11.0 0.00 0.25 0.25 84 1012.2
20260904123818 75 309 5.0 11.0 0.00 0.25 0.25 85 1012.2
20260904123315 75 29 5.0 10.0 0.00 0.25 0.25 85 1012.1
20260904122812 75 313 3.0 8.0 0.00 0.25 0.25 86 1012.1
20260904122313 75 333 3.0 8.0 0.00 0.25 0.25 87 1012.0
20260904121830 75 316 3.0 5.0 0.00 0.25 0.25 88 1011.9
20260904121327 74 313 2.0 5.0 0.00 0.25 0.25 89 1011.8
20260904120824 74 348 3.0 4.0 0.00 0.25 0.25 89 1011.8
20260904120321 74 304 2.0 5.0 0.00 0.25 0.25 89 1011.6
20260904115818 74 329 2.0 5.0 0.00 0.25 0.25 90 1011.7
20260904115315 74 317 2.0 6.0 0.00 0.25 0.25 91 1011.7
20260904114816 73 306 3.0 6.0 0.00 0.25 0.25 92 1011.4
20260904114314 73 35 1.0 4.0 0.00 0.25 0.25 93 1011.4
20260904113811 73 297 0.0 6.0 0.00 0.25 0.25 94 1011.5
20260904113328 73 325 2.0 6.0 0.00 0.25 0.25 94 1011.6
20260904112825 72 341 1.0 7.0 0.00 0.25 0.25 94 1011.4
20260904112321 72 315 2.0 5.0 0.00 0.25 0.25 95 1011.4
20260904111818 72 327 1.0 6.0 0.00 0.25 0.25 95 1011.4
20260904111319 72 335 2.0 6.0 0.00 0.25 0.25 95 1011.4
20260904110816 72 248 2.0 5.0 0.00 0.25 0.25 95 1011.2
20260904110313 72 309 3.0 5.0 0.00 0.25 0.25 95 1011.2
20260904105830 72 347 2.0 5.0 0.00 0.25 0.25 95 1011.2
20260904105328 72 343 2.0 6.0 0.00 0.25 0.25 95 1011.4
20260904104825 72 301 2.0 8.0 0.00 0.25 0.25 95 1011.5
20260904104322 72 306 4.0 8.0 0.00 0.25 0.25 95 1011.3
20260904103823 72 355 3.0 6.0 0.00 0.25 0.25 95 1011.2
20260904103320 72 296 3.0 6.0 0.00 0.25 0.25 95 1011.2
20260904102817 72 331 1.0 5.0 0.00 0.25 0.25 95 1011.2
20260904102315 72 315 2.0 10.0 0.00 0.25 0.25 95 1011.3
20260904101812 72 265 1.0 10.0 0.00 0.25 0.25 95 1011.1
20260904101329 72 304 2.0 9.0 0.00 0.25 0.25 95 1011.2
20260904100826 72 329 2.0 8.0 0.00 0.25 0.25 95 1011.1
20260904100327 72 328 3.0 8.0 0.00 0.25 0.25 95 1010.9
20260904095824 72 344 4.0 8.0 0.00 0.25 0.25 95 1010.8
20260904095322 72 355 3.0 8.0 0.00 0.25 0.25 95 1010.7
20260904094819 72 313 3.0 8.0 0.00 0.25 0.25 95 1010.7
20260904094316 72 355 3.0 6.0 0.00 0.25 0.25 95 1010.7
20260904093813 72 326 3.0 6.0 0.00 0.25 0.25 95 1010.7
20260904093330 72 355 3.0 5.0 0.00 0.25 0.25 95 1010.7
20260904092811 72 319 3.0 5.0 0.00 0.25 0.25 95 1010.7
20260904092329 72 315 2.0 6.0 0.00 0.25 0.25 95 1010.6
20260904091826 72 306 2.0 6.0 0.00 0.25 0.25 95 1010.7
20260904091323 72 275 1.0 5.0 0.00 0.25 0.25 95 1010.7
20260904090820 72 323 2.0 4.0 0.00 0.25 0.25 95 1010.7
20260904090317 72 298 1.0 5.0 0.00 0.25 0.25 95 1010.9
20260904085814 72 294 2.0 5.0 0.00 0.28 0.25 95 1010.7
20260904085315 72 336 1.0 5.0 0.00 0.28 0.25 95 1010.7
20260904084812 72 309 1.0 5.0 0.00 0.28 0.25 95 1010.8
20260904084329 72 318 3.0 5.0 0.00 0.28 0.25 95 1010.6
20260904083826 72 355 1.0 3.0 0.00 0.28 0.25 95 1010.8
20260904083323 72 355 1.0 4.0 0.00 0.28 0.25 95 1010.9
20260904082820 72 342 1.0 4.0 0.00 0.28 0.25 95 1010.9
20260904082318 72 321 1.0 4.0 0.00 0.28 0.25 95 1010.8
20260904081819 72 261 1.0 4.0 0.00 0.28 0.25 95 1010.7
20260904081316 72 282 1.0 4.0 0.00 0.28 0.25 95 1010.7
20260904080813 72 261 0.0 2.0 0.00 0.28 0.25 95 1010.6
20260904080330 72 298 0.0 2.0 0.00 0.28 0.25 95 1010.5
20260904075826 72 315 1.0 3.0 0.00 0.29 0.25 95 1010.6
20260904075323 72 314 0.0 4.0 0.00 0.29 0.25 95 1010.7
20260904074820 72 294 0.0 4.0 0.00 0.29 0.25 95 1010.6
20260904074321 71 332 0.0 1.0 0.00 0.29 0.25 94 1010.7
20260904073818 71 278 0.0 0.0 0.00 0.29 0.25 94 1010.6
20260904073315 71 278 0.0 1.0 0.00 0.29 0.25 94 1010.5
20260904072812 71 278 0.0 1.0 0.00 0.29 0.25 94 1010.5
20260904072329 71 278 0.0 1.0 0.00 0.29 0.25 94 1010.5
20260904071826 71 278 0.0 3.0 0.00 0.29 0.25 94 1010.4
20260904071324 71 337 0.0 3.0 0.01 0.29 0.25 94 1010.3
20260904070825 71 286 0.0 1.0 0.06 0.29 0.25 93 1010.3
20260904070322 71 223 0.0 2.0 0.14 0.29 0.25 93 1010.3
20260904065819 71 223 0.0 3.0 0.22 0.38 0.25 93 1010.3
20260904065316 71 312 1.0 4.0 0.25 0.38 0.25 93 1010.3
20260904064813 71 329 2.0 4.0 0.25 0.38 0.25 93 1010.2
20260904064330 71 317 2.0 3.0 0.25 0.38 0.25 93 1010.2